Flag for U.S.A. Weather past 2 weeks in Kennebunk, Maine, U.S.A.

Now
25 °F

Overcast.


Feels Like: 25 °F
Forecast: 21 / 34 °F
Wind: No wind

Location: Sanford Municipal

Current Time: Mar 1, 2015 at 10:34:35 PM

Latest Report: Mar 1, 2015 at 9:55 PM


Visibility: 2 mi

Pressure: 30.17 "Hg

Humidity: 69%

Dew point: 16 °F

Location of KennebunkLocation

Historic Weather in Kennebunk — Graph

°F

Kennebunk temperature yesterday

Maximum temperature yesterday: 30 °F (at 2:55 PM)
Minimum temperature yesterday: -17 °F (at 5:55 AM)
Average temperature yesterday: 7 °F

Past Weeks' High & Low Weather Summary

 TemperatureHumidityPressure
High37 °F (Feb 22, 3:15 PM)100% (Feb 18, 8:15 PM)30.70 "Hg (Feb 18, 8:15 PM)
Low-20 °F (Feb 24, 5:35 AM)25% (Feb 24, 11:35 AM)29.38 "Hg (Feb 15, 5:15 AM)
Average13 °F55%30.04 "Hg
* Reported Feb 14 9:15 PM — Mar 1 9:15 PM, Kennebunk, Weather by CustomWeather, © 2015

Note: Actual official high and low records may vary slightly from our data, if they occured in-between our weather recording intervals... More about our weather records

Advertising

Kennebunk weather history for previous 24 hours

 ConditionsComfort  
Time TempWeatherWind HumidityBarometerVisibility
9:15 PM
Sun, Mar 1
25 °FOvercast.5 mph86%30.20 "Hg2 mi
8:55 PM25 °FMostly cloudy.No wind74%30.21 "Hg2 mi
8:35 PM25 °FOvercast.3 mph69%30.23 "Hg1 mi
8:15 PM25 °FOvercast.6 mph80%30.24 "Hg1 mi
7:55 PM25 °FOvercast.6 mph86%30.24 "Hg1 mi
7:35 PM25 °FOvercast.3 mph74%30.27 "Hg2 mi
7:15 PM25 °FOvercast.5 mph69%30.27 "Hg2 mi
6:55 PM25 °FMostly cloudy.6 mph80%30.28 "Hg3 mi
6:35 PM25 °FPartly cloudy.6 mph86%30.30 "Hg3 mi
6:15 PM25 °FOvercast.3 mph74%30.30 "Hg3 mi
5:55 PM25 °FMostly cloudy.7 mph63%30.31 "Hg3 mi
5:35 PM27 °FPassing clouds.12 mph59%30.33 "Hg5 mi
5:15 PM27 °FPassing clouds.7 mph59%30.34 "Hg10 mi
4:55 PM27 °FScattered clouds.8 mph54%30.35 "Hg10 mi
4:35 PM28 °FPassing clouds.7 mph40%30.36 "Hg10 mi
4:15 PM28 °FSunny.6 mph40%30.37 "Hg10 mi
3:55 PM28 °FSunny.9 mph43%30.39 "Hg10 mi
3:35 PM28 °FSunny.10 mph43%30.39 "Hg10 mi
3:15 PM28 °FSunny.10 mph40%30.40 "Hg10 mi
2:35 PM28 °FSunny.10 mph40%30.42 "Hg10 mi
2:15 PM28 °FPassing clouds.8 mph47%30.43 "Hg10 mi
1:55 PM28 °FPartly sunny.3 mph51%30.45 "Hg10 mi
1:35 PM27 °FScattered clouds.7 mph50%30.47 "Hg10 mi
1:15 PM27 °FPassing clouds.9 mph43%30.48 "Hg10 mi
12:55 PM28 °FScattered clouds.13 mph34%30.49 "Hg10 mi
12:35 PM28 °FSunny.12 mph37%30.51 "Hg10 mi
12:15 PM28 °FSunny.8 mph34%30.51 "Hg10 mi
11:55 AM27 °FSunny.7 mph36%30.53 "Hg10 mi
11:35 AM27 °FScattered clouds.6 mph36%30.56 "Hg10 mi
11:15 AM21 °FPartly sunny.No wind45%30.58 "Hg10 mi
10:55 AM19 °FPartly sunny.No wind42%30.59 "Hg10 mi
10:35 AM19 °FScattered clouds.No wind42%30.60 "Hg10 mi
10:15 AM19 °FSunny.No wind53%30.60 "Hg10 mi
9:55 AM16 °FSunny.No wind48%30.60 "Hg10 mi
9:35 AM14 °FSunny.No wind57%30.61 "Hg10 mi
9:15 AM12 °FSunny.No wind62%30.62 "Hg10 mi
8:55 AM9 °FSunny.No wind61%30.63 "Hg10 mi
8:35 AM5 °FSunny.No wind72%30.64 "Hg10 mi
8:15 AM5 °FSunny.No wind78%30.65 "Hg10 mi
7:55 AM1 °FSunny.No wind65%30.65 "Hg10 mi
7:35 AM0 °FSunny.No wind71%30.65 "Hg9 mi
7:15 AM-2 °FSunny.No wind77%30.64 "Hg10 mi
6:55 AM-6 °FSunny.No wind77%30.64 "Hg10 mi
6:35 AM-8 °FSunny.No wind70%30.63 "Hg10 mi
6:15 AM-8 °FClear.No wind64%30.63 "Hg10 mi
5:55 AM-9 °FClear.6 mph92%30.63 "Hg10 mi
5:35 AM-11 °FClear.5 mph76%30.63 "Hg10 mi
5:15 AM-11 °FClear.7 mph52%30.64 "Hg10 mi
4:55 AM-9 °FClear.No wind70%30.64 "Hg10 mi
4:35 AM-13 °FClear.5 mph76%30.65 "Hg10 mi
4:15 AM-11 °FClear.3 mph76%30.64 "Hg10 mi
3:55 AM-11 °FClear.No wind70%30.65 "Hg10 mi
3:35 AM-9 °FClear.No wind58%30.65 "Hg10 mi
3:15 AM-11 °FClear.No wind100%30.65 "Hg10 mi
2:55 AM-9 °FClear.5 mph64%30.65 "Hg10 mi
2:35 AM-9 °FClear.No wind64%30.63 "Hg10 mi
2:15 AM-8 °FClear.No wind77%30.64 "Hg10 mi
1:55 AM-8 °FClear.No wind70%30.66 "Hg10 mi
1:35 AM-8 °FClear.No wind77%30.66 "Hg10 mi
1:15 AM-6 °FClear.No wind64%30.66 "Hg10 mi
12:55 AM-6 °FClear.No wind92%30.66 "Hg10 mi
12:35 AM-6 °FClear.3 mph77%30.67 "Hg10 mi
12:15 AM-4 °FClear.No wind71%30.65 "Hg10 mi
11:55 PM
Sat, Feb 28
-2 °FClear.No wind54%30.65 "Hg10 mi
11:35 PM1 °FClear.No wind65%30.65 "Hg10 mi
11:15 PM-2 °FClear.8 mph65%30.65 "Hg10 mi
10:55 PM-2 °FClear.6 mph71%30.65 "Hg10 mi
10:15 PM1 °FClear.No wind78%30.66 "Hg10 mi
Weather by CustomWeather, © 2015

See weather overviewHow to use our weather pages